Flag for Germany Weather past 2 weeks in Rastatt, Baden-Württemberg, Germany

Now
95 °F

Sunny.


Feels Like: 94 °F
Forecast: 66 / 82 °F
Wind: 5 mph from West

Location: Karlsruhe - Baden Wurttemberg

Current Time: Jul 5, 2015 at 8:20:04 PM

Latest Report: Jul 5, 2015 at 7:50 PM


Visibility: 10 mi

Pressure: 29.86 "Hg

Humidity: 28%

Dew point: 57 °F

Location of RastattLocation

Historic Weather in Rastatt — Graph

°F

Rastatt temperature yesterday

Maximum temperature yesterday: 100 °F (at 4:50 PM)
Minimum temperature yesterday: 66 °F (at 5:20 AM)
Average temperature yesterday: 86 °F

Past Weeks' High & Low Weather Summary

 TemperatureHumidityPressure
High100 °F (Jul 4, 4:50 PM)94% (Jun 21, 12:20 AM)30.21 "Hg (Jun 21, 12:20 AM)
Low48 °F (Jun 23, 6:20 AM)22% (Jul 4, 4:50 PM)29.74 "Hg (Jun 22, 7:50 PM)
Average72 °F58%30.09 "Hg
* Reported Jun 20 7:20 PM — Jul 5 7:20 PM, Rastatt, Weather by CustomWeather, © 2015

Note: Actual official high and low records may vary slightly from our data, if they occured in-between our weather recording intervals... More about our weather records

Advertising

Rastatt weather history for previous 24 hours

 ConditionsComfort  
Time TempWeatherWind HumidityBarometerVisibility
7:20 PM
Sun, Jul 5
99 °FSunny.7 mph24%29.86 "Hg10 mi
6:50 PM99 °FSunny.8 mph24%29.86 "Hg10 mi
6:20 PM99 °FSunny.8 mph24%29.86 "Hg10 mi
5:50 PM100 °FSunny.7 mph24%29.86 "Hg10 mi
5:20 PM100 °FSunny.7 mph22%29.89 "Hg10 mi
4:50 PM99 °FSunny.6 mph25%29.89 "Hg10 mi
4:20 PM100 °FSunny.8 mph24%29.92 "Hg10 mi
3:50 PM100 °FPassing clouds.10 mph22%29.92 "HgN/A
3:20 PM99 °FSunny.9 mph25%29.95 "Hg10 mi
2:50 PM99 °FPassing clouds.8 mph25%29.95 "HgN/A
2:20 PM97 °FSunny.7 mph28%29.95 "Hg10 mi
1:50 PM97 °FSunny.7 mph28%29.98 "Hg10 mi
1:20 PM95 °FPassing clouds.7 mph32%29.98 "HgN/A
12:50 PM95 °FPassing clouds.6 mph32%29.98 "HgN/A
12:20 PM91 °FPassing clouds.6 mph36%29.98 "HgN/A
11:50 AM90 °FPassing clouds.6 mph41%30.01 "HgN/A
11:20 AM88 °FPassing clouds.5 mph43%30.01 "HgN/A
10:50 AM86 °FPassing clouds.6 mph49%30.01 "HgN/A
10:20 AM84 °FSunny.3 mph51%30.01 "Hg10 mi
9:50 AM82 °FPassing clouds.5 mph55%30.04 "HgN/A
9:20 AM82 °FPassing clouds.6 mph51%30.04 "HgN/A
8:50 AM82 °FPassing clouds.5 mph55%30.04 "HgN/A
8:20 AM81 °FSunny.2 mph58%30.04 "Hg10 mi
7:50 AM79 °FSunny.3 mph58%30.04 "Hg10 mi
7:20 AM75 °FSunny.3 mph65%30.04 "Hg10 mi
6:50 AM73 °FSunny.6 mph74%30.04 "Hg10 mi
6:20 AM73 °FClear.2 mph78%30.07 "Hg10 mi
5:20 AM70 °FThundershowers. Passing clouds.1 mph83%30.04 "HgN/A
4:50 AM70 °FClear.2 mph83%30.04 "Hg10 mi
4:20 AM72 °FClear.3 mph83%30.04 "Hg10 mi
12:50 AM75 °FClear.2 mph74%30.07 "Hg10 mi
12:20 AM79 °FClear.3 mph61%30.07 "Hg10 mi
11:50 PM
Sat, Jul 4
77 °FClear.2 mph69%30.07 "Hg10 mi
11:20 PM77 °FClear.No wind69%30.07 "Hg10 mi
10:50 PM79 °FClear.2 mph65%30.07 "Hg10 mi
10:20 PM82 °FSunny.2 mph58%30.07 "Hg10 mi
9:50 PM84 °FSunny.3 mph51%30.07 "Hg10 mi
9:20 PM86 °FSunny.2 mph46%30.07 "Hg10 mi
8:50 PM90 °FSunny.No wind41%30.07 "Hg10 mi
8:20 PM93 °FSunny.1 mph32%30.07 "Hg10 mi
Weather by CustomWeather, © 2015

See weather overviewHow to use our weather pages